Wetbulb
64.72 63.09 63.60 61.79 51.73 51.38 48.08 49.50 53.64 53.39 54.76 58.05 60.22 59.75 59.36 61.54 61.05 57.95 68.05 69.17 74.77 72.38 73.84 74.92 76.08 76.14 75.96 75.49 75.39 75.83 76.41 76.56 77.07 76.92 76.80 76.47 76.18 75.43 74.76 73.99 72.71 71.21 70.13 69.37 68.19 67.18 66.78 66.94 66.85
62.16 60.38 60.41 57.03 49.11 46.37 48.54 52.31 52.31 54.18 57.25 58.77 60.58 60.83 61.60 61.27 65.57 66.03 66.33 69.10 75.72 73.14 73.14 73.77 75.83 75.86 75.79 75.41 75.21 74.91 75.42 75.94 76.57 76.67 76.37 76.17 75.83 75.06 73.89 73.07 71.91 70.66 69.78 68.62 67.70 67.48 67.45 67.12 66.74
64.33 61.94 55.95 51.39 49.14 46.75 48.24 53.62 54.14 56.10 58.05 60.76 60.40 62.78 62.41 63.26 66.47 67.00 69.02 70.18 75.64 73.93 72.11 73.77 75.71 75.68 75.84 75.36 75.06 74.63 74.61 75.09 75.50 75.93 75.77 75.47 75.10 74.46 73.47 72.79 72.08 70.18 69.17 68.34 68.26 68.14 67.77 67.30 67.02
62.85 61.15 56.22 49.36 47.70 50.47 51.71 54.27 55.80 55.72 57.17 61.69 61.66 60.45 64.03 67.88 67.58 68.65 69.70 70.09 73.24 73.06 72.27 74.58 75.16 75.55 75.58 75.44 74.96 74.56 74.36 74.36 74.71 75.06 75.05 74.80 74.23 73.74 72.94 72.35 71.69 71.19 69.78 69.62 69.24 68.70 68.62 68.30 68.62
60.13 56.76 48.70 47.56 48.26 51.54 54.01 55.47 56.00 55.08 58.07 58.70 61.35 60.08 62.10 66.76 69.81 69.52 69.52 70.05 71.24 72.38 72.75 74.21 74.68 75.30 75.48 75.44 75.06 74.66 74.23 73.81 73.79 74.19 74.11 73.89 73.57 73.12 72.25 71.83 71.61 71.47 71.41 70.53 69.75 70.23 70.10 70.21 70.19
55.22 55.00 47.17 45.65 48.22 51.53 53.66 55.39 55.35 55.51 57.82 59.58 60.84 61.06 62.57 67.57 68.50 68.24 68.85 69.52 70.20 72.06 73.67 74.63 74.51 74.78 74.88 74.91 74.73 74.11 73.93 73.61 73.49 73.51 73.54 73.17 72.94 72.55 71.95 71.58 71.67 71.85 71.71 71.44 71.13 71.06 71.07 71.06 71.16
54.47 52.08 47.93 47.49 48.44 50.79 53.09 56.33 54.48 54.53 55.04 56.11 61.76 59.89 64.00 65.84 68.43 68.25 68.02 69.70 70.05 72.65 75.60 74.65 73.69 74.23 74.63 74.48 74.10 73.75 73.33 73.21 72.96 72.92 72.94 72.57 72.47 72.28 71.88 71.61 71.53 71.67 71.84 71.56 71.63 71.64 71.63 71.36 71.54
57.72 54.52 49.53 49.97 48.61 48.59 53.66 54.59 55.46 54.35 54.33 59.43 62.14 59.37 60.73 66.19 68.93 67.91 67.26 68.04 68.96 71.04 75.73 75.32 74.32 72.56 72.52 73.20 74.28 73.93 73.35 73.06 72.83 72.74 72.71 72.25 72.15 72.18 71.96 71.11 71.41 71.95 71.85 71.75 71.70 71.78 71.91 71.80 71.80
59.18 51.43 48.94 50.11 49.81 51.25 54.58 52.88 55.49 57.01 55.31 57.34 61.05 62.55 65.47 67.76 68.63 66.77 65.93 66.12 67.23 69.21 72.43 75.12 74.34 72.94 70.96 70.71 72.81 74.08 73.61 73.48 73.18 72.86 72.61 71.64 70.15 69.81 69.73 70.55 70.57 71.93 72.05 71.95 72.03 71.93 72.00 72.02 71.94
53.66 51.03 51.07 54.46 54.70 53.68 54.27 54.47 54.77 54.40 54.01 55.01 58.10 63.55 65.18 66.80 67.25 66.48 65.25 65.29 66.25 67.90 69.95 71.84 74.34 72.12 71.17 70.61 71.55 72.27 71.87 72.06 71.70 70.73 70.87 70.92 69.11 68.23 68.64 69.72 70.82 71.73 71.93 72.00 72.05 71.97 72.15 71.80 69.48
54.11 51.72 54.72 55.20 56.23 56.48 55.30 55.35 56.06 54.13 52.59 55.06 56.91 60.84 63.60 64.80 67.19 66.25 65.88 65.83 66.36 68.07 68.74 71.26 74.00 73.51 72.51 71.62 72.17 72.64 71.14 70.92 70.55 70.11 69.78 70.38 68.71 67.77 68.26 67.53 68.79 69.35 71.04 69.39 70.40 70.43 70.35 69.39 68.86
49.15 53.81 55.23 56.10 56.91 56.29 55.38 57.19 55.46 55.40 55.16 57.52 58.69 61.99 63.58 63.86 65.92 65.37 65.27 65.88 67.57 67.76 68.11 71.35 74.49 74.78 74.33 73.79 72.49 73.22 72.64 72.00 70.68 70.48 70.60 69.75 68.84 67.59 67.22 67.24 68.24 67.13 68.14 68.33 67.85 67.94 68.52 68.74 69.26
47.61 49.44 52.77 55.47 56.62 57.07 57.43 55.92 56.05 56.03 58.16 58.63 58.71 59.69 63.19 64.34 65.34 66.73 67.63 68.02 67.52 69.39 68.19 70.31 75.21 75.39 76.28 77.15 76.33 73.89 73.11 72.79 72.43 72.07 71.27 70.39 70.02 68.26 68.58 68.67 67.78 68.55 68.18 68.71 67.45 68.03 68.23 68.33 68.78
49.65 49.57 50.29 51.61 52.95 54.90 54.46 55.62 56.50 57.75 59.46 59.02 59.24 58.89 59.69 63.33 64.25 66.07 67.36 68.79 74.73 73.39 73.71 72.88 75.30 76.18 76.89 76.48 77.00 77.33 77.45 73.84 74.15 73.16 72.91 71.85 69.97 70.52 69.10 68.39 69.68 68.13 69.26 69.01 68.43 67.60 68.06 68.73 69.39
48.60 46.47 48.92 49.75 50.82 51.18 54.03 52.19 53.24 58.17 59.47 58.63 59.20 59.24 59.84 60.63 64.57 64.60 66.37 69.58 71.89 72.52 77.89 74.25 76.18 77.60 76.89 76.20 76.96 75.93 75.12 74.86 73.78 74.74 75.96 72.91 71.81 70.34 71.11 69.92 67.81 70.00 69.42 71.11 69.36 68.71 68.78 69.48 69.44
44.40 45.28 42.16 48.36 49.60 50.45 50.61 46.39 53.41 56.98 57.39 57.81 58.49 59.60 60.12 60.59 61.36 64.10 66.03 70.25 71.76 72.10 72.24 74.69 70.84 76.70 77.26 76.75 76.40 75.93 75.37 74.33 74.02 74.01 75.26 75.35 73.02 73.32 72.35 70.93 70.57 69.69 71.15 69.08 69.44 69.14 68.68 68.16 67.76
43.31 38.25 40.32 43.07 48.97 49.37 48.87 46.83 52.55 55.48 55.82 56.52 58.06 59.41 59.72 60.90 62.66 64.40 66.07 67.91 71.02 72.86 73.01 73.53 73.90 73.33 75.11 75.86 74.81 74.71 74.43 74.31 74.37 74.99 73.63 75.21 74.80 73.22 73.31 71.83 71.37 72.82 70.00 70.02 69.38 67.83 68.37 67.02 67.62
38.42 39.84 41.10 40.46 44.68 46.11 46.55 47.49 51.02 54.41 55.13 55.23 56.57 57.72 59.92 60.35 61.64 64.58 66.48 67.10 70.61 71.97 73.08 73.64 74.74 74.96 77.19 74.13 76.54 74.43 72.96 72.93 74.18 74.24 73.80 74.54 73.80 73.94 72.52 72.79 71.41 73.33 70.91 69.86 69.25 68.79 68.69 67.70 66.82
43.05 41.56 40.58 43.55 45.63 44.39 44.62 46.47 49.71 52.45 53.42 53.75 56.73 57.17 58.03 60.15 63.51 63.80 65.75 66.70 67.91 71.09 72.06 72.98 72.92 74.51 74.18 74.31 71.46 69.92 69.42 71.11 73.22 73.33 74.28 75.01 74.04 73.32 73.36 71.66 72.48 72.43 70.40 70.13 71.09 70.03 68.78 67.41 66.83
42.49 40.35 40.30 43.32 45.19 44.25 44.08 43.66 47.72 51.28 53.03 53.75 55.59 57.43 58.13 59.59 60.95 64.10 65.43 68.42 69.63 71.28 71.53 72.34 72.31 73.22 73.91 73.23 72.43 72.20 73.32 71.96 72.27 73.50 74.16 74.93 74.03 73.84 73.08 72.32 71.79 71.73 71.02 71.13 70.79 69.13 66.53 65.98 67.81
41.63 40.18 40.00 39.97 43.35 44.38 42.80 41.55 44.83 48.76 52.16 53.74 55.94 57.55 58.42 59.19 60.76 61.87 64.05 66.84 69.07 68.64 70.29 70.02 71.69 72.49 73.62 72.39 71.91 72.31 73.63 74.52 73.87 73.36 73.93 74.29 73.85 73.84 73.22 72.27 72.77 71.63 70.72 70.01 70.21 69.32 67.09 66.04 67.53
38.45 43.44 42.23 40.89 39.46 34.86 42.44 34.60 43.32 46.57 49.04 52.06 53.85 56.36 57.54 58.25 59.97 62.54 63.88 66.08 68.77 67.94 68.28 68.95 70.50 70.31 71.62 72.62 69.72 70.28 70.00 69.18 71.96 73.28 73.13 73.26 73.91 73.30 72.78 72.35 72.00 71.90 70.97 70.45 69.36 69.22 68.94 67.67 65.02
40.74 43.46 41.62 40.86 39.06 38.28 38.28 36.23 39.84 46.37 46.11 50.38 52.84 55.35 57.49 58.23 59.06 60.01 62.48 64.33 66.18 67.65 66.94 67.18 69.55 70.48 70.52 71.69 71.10 69.34 71.31 71.43 74.70 73.50 74.07 73.04 73.39 73.01 72.16 72.22 72.30 71.70 71.54 71.73 70.26 70.03 68.08 67.90 66.18
44.64 41.58 40.48 39.92 37.83 31.49 36.42 36.34 37.34 41.64 46.59 50.15 53.19 54.41 56.58 58.17 58.57 59.49 61.81 63.96 63.69 64.77 65.77 66.22 66.32 69.46 70.04 71.89 71.26 71.57 71.63 71.63 71.72 72.40 72.14 72.05 71.96 70.83 71.31 71.29 71.65 72.15 71.71 71.44 70.28 70.12 69.04 68.22 67.05
42.78 38.41 30.59 29.08 29.63 29.82 38.17 35.45 38.31 44.29 47.62 50.52 52.68 54.46 56.30 57.35 58.16 59.49 60.45 60.87 62.40 63.77 64.67 66.15 68.98 67.11 70.39 70.83 71.76 71.63 74.27 72.17 75.78 72.77 71.69 71.17 69.74 69.73 70.29 70.73 71.98 72.02 71.99 71.00 70.64 69.86 68.83 67.66 66.86
40.09 38.28 30.49 22.34 24.39 29.11 37.57 31.52 38.37 46.71 48.35 51.36 53.50 55.18 56.66 57.15 58.08 59.03 60.57 62.19 60.92 62.36 63.91 63.77 65.56 68.23 69.54 70.05 71.79 72.67 74.07 72.92 74.93 72.85 72.58 71.01 70.33 70.40 71.44 72.26 72.22 71.78 71.24 70.50 70.28 69.19 67.87 68.27 66.76
39.79 35.27 40.65 32.66 34.16 29.27 32.68 37.51 43.55 46.58 47.94 50.06 52.08 53.64 54.48 56.38 58.67 58.80 59.88 62.84 64.02 65.51 68.29 67.33 66.26 67.12 69.20 72.04 72.93 72.71 73.26 74.11 73.32 73.81 75.10 72.32 72.00 72.26 72.33 71.88 71.14 70.90 70.10 69.81 69.14 68.09 67.50 67.26 67.17
41.62 43.11 33.01 33.54 24.63 22.84 31.33 33.42 35.05 42.70 45.99 49.28 51.00 53.01 55.32 56.99 57.61 59.55 61.34 64.90 67.62 68.40 69.51 69.74 67.31 68.00 72.08 72.64 72.89 73.12 73.85 74.53 74.52 74.24 73.14 72.77 71.54 71.27 71.38 70.89 70.43 68.84 69.40 68.63 68.23 67.80 67.40 66.39 66.30
39.43 37.70 38.58 37.24 34.35 27.49 25.43 32.10 43.39 43.97 47.38 48.97 50.45 53.38 55.30 55.43 55.97 57.96 61.74 65.35 66.64 67.39 67.52 68.98 67.03 71.35 71.82 72.67 73.24 73.23 73.62 72.86 72.52 72.51 71.82 71.70 71.78 70.37 69.96 69.78 68.72 67.18 66.81 67.70 67.64 67.10 66.13 65.91 65.27
39.73 39.51 37.39 30.45 29.34 34.38 31.46 32.61 45.91 46.86 47.47 49.47 51.49 53.68 54.77 55.44 55.59 56.59 64.88 65.64 65.30 65.60 66.51 68.14 70.35 71.05 72.06 72.59 72.61 72.47 72.17 71.63 71.37 70.89 71.25 71.07 70.56 69.70 69.03 68.86 67.15 66.65 67.18 67.67 66.65 66.15 65.98 64.56 64.31
MSLP
1008.72 1007.92 1007.38 1005.99 1005.20 1002.91 1000.38 998.44 996.48 994.57 993.63 993.86 994.33 995.05 995.70 995.82 996.55 998.19 998.98 999.26 1000.96 1002.57 1003.55 1004.75 1005.44 1006.30 1006.93 1007.46 1008.02 1008.50 1008.93 1009.40 1009.68 1010.05 1010.36 1010.51 1010.67 1010.97 1011.38 1011.66 1011.90 1012.12 1012.33 1012.48 1012.64 1012.77 1012.95 1013.04 1013.24
1008.14 1007.50 1006.68 1005.39 1003.85 1001.55 999.07 997.29 995.66 994.49 993.96 994.29 994.94 995.84 996.11 996.48 996.49 998.58 998.70 999.18 1001.03 1002.61 1003.38 1004.35 1005.41 1006.11 1006.87 1007.38 1007.92 1008.47 1008.92 1009.33 1009.71 1010.09 1010.33 1010.62 1010.92 1011.07 1011.37 1011.69 1011.84 1012.03 1012.31 1012.47 1012.59 1012.87 1013.06 1013.18 1013.38
1008.47 1006.97 1006.06 1004.57 1002.94 1000.75 998.26 995.65 994.67 993.86 994.32 994.67 995.35 996.04 995.88 996.12 997.07 997.89 998.81 999.53 1001.23 1002.61 1003.37 1004.14 1005.19 1006.12 1006.80 1007.29 1007.70 1008.27 1008.82 1009.36 1009.70 1010.08 1010.38 1010.64 1010.94 1011.19 1011.36 1011.55 1011.78 1011.92 1012.21 1012.40 1012.62 1012.93 1013.10 1013.26 1013.41
1007.09 1006.22 1005.76 1003.75 1001.66 999.87 998.36 996.42 994.83 993.78 994.52 995.27 995.71 995.57 996.00 996.01 996.78 997.85 998.69 999.73 1001.16 1002.28 1003.27 1004.29 1005.22 1006.07 1006.59 1007.06 1007.59 1008.13 1008.69 1009.16 1009.55 1009.82 1010.49 1010.80 1011.02 1011.13 1011.44 1011.59 1011.65 1011.90 1012.08 1012.31 1012.63 1012.91 1013.21 1013.33 1013.50
1007.07 1005.69 1004.57 1002.91 1001.30 999.93 998.09 996.60 995.51 994.59 994.43 995.15 995.41 995.48 995.74 996.26 997.19 997.94 998.48 999.52 1000.55 1001.70 1002.83 1004.35 1005.26 1006.00 1006.56 1007.00 1007.43 1007.91 1008.52 1009.02 1009.47 1009.71 1010.20 1010.59 1010.89 1011.11 1011.20 1011.47 1011.53 1011.75 1011.94 1012.16 1012.52 1012.82 1013.04 1013.21 1013.37
1006.43 1005.68 1004.38 1002.44 1000.99 999.60 998.11 997.16 996.14 995.44 995.07 995.12 995.13 995.39 995.55 995.86 997.19 998.10 998.50 999.22 1000.01 1001.26 1002.59 1004.14 1005.10 1005.78 1006.40 1007.04 1007.48 1007.90 1008.33 1008.78 1009.33 1009.56 1010.00 1010.27 1010.72 1011.00 1011.15 1011.34 1011.52 1011.66 1011.83 1012.09 1012.35 1012.55 1012.75 1012.98 1013.18
1005.81 1005.41 1003.95 1002.58 1000.90 998.99 997.72 997.28 996.67 996.01 995.84 995.91 995.41 995.28 995.90 996.00 996.95 997.70 998.26 998.96 999.82 1000.93 1002.47 1003.93 1004.99 1005.69 1006.39 1006.86 1007.39 1007.87 1008.17 1008.55 1009.15 1009.34 1009.83 1010.08 1010.38 1010.70 1011.03 1011.23 1011.41 1011.58 1011.74 1011.95 1012.12 1012.32 1012.56 1012.78 1013.00
1005.56 1005.10 1003.74 1002.63 1001.10 999.62 998.55 998.39 998.05 997.15 996.07 995.99 995.66 995.47 995.82 996.17 995.85 997.23 998.14 998.77 999.54 1000.63 1002.13 1003.56 1004.72 1005.56 1006.25 1006.77 1007.22 1007.79 1008.18 1008.48 1008.93 1009.13 1009.60 1009.95 1010.25 1010.45 1010.72 1010.99 1011.15 1011.43 1011.68 1011.85 1011.92 1012.06 1012.34 1012.51 1012.72
1005.38 1004.84 1003.09 1002.27 1001.20 1000.01 999.32 998.99 998.35 997.79 996.95 995.92 995.54 995.65 996.14 996.41 996.36 996.96 997.79 998.38 998.92 999.96 1001.41 1002.63 1004.01 1005.08 1005.78 1006.34 1007.00 1007.65 1008.00 1008.33 1008.67 1009.02 1009.35 1009.75 1009.89 1010.01 1010.29 1010.64 1010.74 1011.17 1011.41 1011.58 1011.75 1012.00 1012.11 1012.32 1012.56
1004.66 1003.54 1002.31 1002.10 1000.97 999.90 999.39 998.77 998.98 998.40 997.59 996.64 995.89 996.05 996.69 997.06 997.09 997.35 997.62 998.01 998.60 999.39 1000.58 1001.53 1002.87 1004.16 1005.12 1005.26 1005.99 1007.11 1007.45 1007.91 1008.16 1008.40 1008.87 1009.27 1009.41 1009.33 1009.59 1009.94 1010.37 1010.76 1011.11 1011.36 1011.65 1011.87 1011.99 1012.18 1012.22
1003.65 1001.99 1002.28 1001.54 1001.11 1000.41 999.60 999.00 999.01 998.57 997.80 996.93 996.50 996.40 996.75 997.32 997.25 997.21 997.40 997.62 998.08 998.72 999.44 1000.31 1001.65 1003.05 1003.96 1004.36 1005.03 1006.08 1006.60 1007.03 1007.52 1007.74 1008.09 1008.60 1008.86 1008.90 1008.91 1009.23 1009.64 1010.16 1010.63 1010.97 1011.35 1011.62 1011.75 1011.73 1011.77
1003.09 1002.02 1001.82 1001.39 1000.93 1000.40 999.78 999.19 998.97 998.88 998.24 997.28 996.95 996.71 996.95 997.54 997.61 997.39 997.39 997.63 997.96 998.53 999.17 999.77 1001.20 1002.04 1002.68 1003.36 1004.04 1005.05 1005.52 1005.88 1006.46 1006.79 1007.16 1007.72 1008.37 1008.37 1008.54 1008.59 1008.68 1009.37 1009.63 1010.24 1010.50 1010.84 1011.01 1011.15 1011.01
1002.33 1002.07 1001.53 1001.13 1000.72 1000.10 999.79 998.99 999.06 999.01 998.81 998.01 997.18 996.66 996.49 997.10 997.74 997.73 997.58 997.75 998.18 998.51 999.15 1001.87 1002.29 1001.82 1002.38 1002.89 1003.27 1003.85 1004.43 1004.75 1005.19 1005.70 1006.19 1006.68 1007.18 1007.59 1007.90 1007.98 1008.16 1008.47 1008.85 1009.23 1009.74 1009.90 1010.18 1010.35 1010.33
1002.62 1001.69 1001.11 1000.86 1000.10 999.56 999.41 998.71 998.99 998.07 998.56 998.29 997.52 996.75 996.60 997.74 997.59 997.61 997.69 997.86 998.11 998.51 998.99 999.35 1000.67 1001.47 1002.22 1003.03 1003.21 1003.66 1003.85 1003.97 1004.28 1004.61 1005.01 1005.64 1006.15 1006.73 1007.29 1007.41 1007.50 1007.70 1007.93 1008.09 1008.68 1009.09 1009.20 1009.40 1009.60
1003.20 1001.98 1001.27 1000.08 999.62 998.94 999.30 998.36 997.71 998.01 998.25 998.13 997.81 997.25 996.61 996.38 996.65 997.02 997.70 997.81 998.15 998.51 999.02 999.45 1000.03 1001.04 1002.04 1002.54 1003.07 1003.56 1003.51 1003.53 1003.68 1003.61 1003.67 1004.46 1005.11 1005.94 1006.42 1006.77 1007.12 1007.07 1007.20 1007.31 1007.73 1008.21 1008.48 1008.55 1008.78
1004.00 1002.78 1000.88 999.28 999.73 998.68 999.30 997.00 997.18 997.86 997.95 997.83 998.03 997.44 996.71 996.23 996.17 996.47 997.18 997.55 997.93 998.27 998.91 999.42 999.55 1000.61 1001.44 1001.99 1002.49 1002.88 1003.00 1003.06 1003.03 1002.90 1003.13 1003.64 1004.22 1004.87 1005.78 1006.05 1006.40 1006.81 1006.98 1007.07 1007.21 1007.38 1007.80 1008.09 1008.39
1003.30 1001.90 1000.89 999.23 999.07 998.37 998.75 996.85 996.58 997.17 997.30 997.38 997.51 997.25 996.95 996.33 995.95 996.22 996.75 997.04 997.39 998.04 998.77 999.45 999.89 1000.37 1001.05 1001.43 1001.81 1002.10 1002.37 1002.44 1002.42 1002.39 1002.64 1002.89 1003.62 1004.22 1005.01 1005.47 1005.81 1006.22 1006.59 1006.61 1006.80 1007.07 1007.46 1007.87 1008.20
1002.44 1001.37 1000.17 999.00 998.87 998.68 997.50 996.35 995.75 996.18 996.23 996.44 996.87 996.92 996.41 996.13 995.79 995.89 996.10 996.48 996.94 997.63 998.39 999.38 999.97 1000.30 1000.56 1000.93 1001.24 1001.60 1001.79 1001.77 1001.89 1001.97 1002.15 1002.52 1002.99 1003.78 1004.60 1005.10 1005.42 1005.86 1006.08 1006.27 1006.49 1006.79 1007.09 1007.55 1008.01
1002.45 1001.76 1000.44 999.58 999.16 998.83 997.66 996.29 994.88 995.04 995.50 995.41 995.56 996.11 995.90 995.62 995.06 995.24 995.47 995.77 996.46 996.97 997.74 999.05 999.77 1000.30 1000.71 1000.99 1001.14 1001.43 1001.39 1001.47 1001.41 1001.63 1001.96 1002.23 1002.72 1003.42 1004.12 1004.84 1005.08 1005.55 1005.74 1005.94 1006.21 1006.53 1007.03 1007.42 1007.67
1002.81 1002.13 1001.03 1000.51 1000.29 1000.15 998.66 996.67 995.39 994.38 993.78 993.95 994.39 994.77 995.22 994.85 994.59 994.43 994.65 995.15 995.73 996.79 997.63 998.42 999.25 999.73 1000.29 1000.59 1000.73 1000.85 1000.63 1000.55 1000.59 1001.00 1001.42 1001.86 1002.66 1003.28 1003.80 1004.43 1004.78 1005.22 1005.51 1005.65 1005.95 1006.36 1006.92 1007.40 1007.72
1002.28 1001.88 1001.54 1001.16 1000.84 1000.65 999.43 997.25 995.76 994.39 993.75 993.03 992.68 993.13 993.83 994.16 993.82 993.89 994.16 994.76 995.54 996.48 997.35 997.98 998.54 999.02 999.58 1000.01 1000.16 1000.39 1000.32 1000.20 1000.20 1000.59 1001.23 1001.76 1002.53 1003.15 1003.69 1004.19 1004.49 1004.89 1005.21 1005.46 1005.87 1006.35 1006.88 1007.45 1007.76
1001.85 1002.03 1001.62 1001.33 1001.09 1000.26 1000.20 997.08 996.12 994.70 993.73 992.78 991.71 991.59 992.30 993.15 993.32 993.26 993.47 994.22 994.97 995.77 996.48 997.26 997.96 998.48 998.95 999.45 999.66 999.86 1000.09 1000.08 999.88 1000.12 1000.76 1001.72 1002.36 1003.00 1003.53 1003.89 1004.40 1004.64 1004.86 1005.05 1005.58 1006.14 1006.72 1007.27 1007.73
1002.26 1002.02 1001.89 1001.65 1001.23 1000.71 1000.03 998.65 996.15 995.18 993.14 992.10 991.37 991.10 991.05 991.82 992.41 992.75 992.90 993.40 994.17 994.99 995.73 996.39 997.09 997.73 998.16 998.71 998.90 999.38 999.56 999.44 999.56 999.77 1000.61 1001.34 1002.17 1002.86 1003.35 1003.78 1004.21 1004.33 1004.57 1004.74 1005.32 1005.91 1006.54 1006.91 1007.47
1002.22 1002.31 1002.51 1002.50 1002.22 1000.82 999.79 999.14 995.90 995.22 993.24 991.94 990.93 990.74 990.39 990.79 991.53 991.97 992.15 992.60 993.27 993.92 994.55 995.48 996.26 996.81 997.26 997.81 998.23 998.53 998.92 998.96 999.12 999.56 1000.54 1001.23 1002.12 1002.89 1003.21 1003.62 1003.80 1004.05 1004.32 1004.70 1005.06 1005.63 1006.32 1006.80 1007.18
1002.29 1002.62 1002.57 1002.25 1001.95 1000.28 999.92 998.68 995.80 995.18 993.65 992.08 990.65 989.89 989.65 989.86 990.37 990.74 991.24 991.82 992.53 993.12 993.76 994.35 995.10 995.80 996.41 997.03 997.42 998.23 998.24 998.50 998.63 999.21 1000.15 1001.08 1001.94 1002.73 1003.16 1003.40 1003.65 1003.91 1004.32 1004.74 1005.01 1005.68 1006.24 1006.59 1006.95
1003.00 1003.09 1003.63 1003.41 1003.30 1002.09 1000.78 999.01 995.65 994.85 993.29 991.79 990.72 989.22 988.26 988.69 989.23 989.97 990.61 991.32 991.85 992.49 993.03 993.58 994.27 995.00 995.70 996.32 996.94 997.72 998.04 997.99 998.31 998.75 999.54 1000.69 1001.54 1002.19 1002.74 1003.11 1003.49 1003.82 1004.16 1004.61 1005.14 1005.73 1006.11 1006.43 1006.85
1003.07 1002.97 1003.39 1004.01 1004.16 1003.22 1001.49 1000.02 997.33 995.03 992.55 992.26 990.86 989.73 989.38 989.50 989.70 990.08 990.79 991.36 991.79 992.08 992.40 992.80 993.65 994.54 995.21 995.81 996.57 997.37 997.70 997.55 997.91 998.49 999.17 1000.19 1000.80 1001.58 1002.31 1002.83 1003.25 1003.57 1004.10 1004.60 1005.16 1005.59 1005.91 1006.16 1006.62
1003.15 1003.29 1003.25 1004.59 1004.09 1002.79 1000.72 998.99 996.90 995.34 993.06 992.17 991.36 990.13 989.77 990.26 990.53 990.61 991.11 991.46 991.83 992.08 992.33 992.56 993.19 994.07 994.74 995.53 996.36 996.97 997.17 997.38 997.79 998.54 999.10 999.75 1000.67 1001.37 1002.12 1002.61 1003.12 1003.54 1004.05 1004.56 1005.05 1005.23 1005.59 1005.95 1006.47
1003.02 1002.38 1002.80 1003.30 1003.81 1002.37 1001.05 997.81 997.27 996.62 994.20 992.71 991.93 990.55 990.32 990.66 990.73 990.76 990.82 991.61 992.24 992.53 992.42 992.51 993.06 993.73 994.56 995.31 996.08 996.73 997.08 997.44 998.07 998.74 999.31 1000.00 1000.72 1001.41 1002.06 1002.58 1003.09 1003.67 1004.15 1004.46 1004.87 1005.19 1005.45 1005.91 1006.43
1005.09 1003.72 1003.97 1005.03 1003.53 1002.35 1001.07 998.16 998.12 997.55 995.24 993.61 991.42 990.88 990.86 990.96 990.90 990.76 991.09 991.70 991.93 992.09 991.69 992.34 992.82 993.56 994.43 995.32 996.04 996.59 997.08 997.66 998.48 999.11 999.74 1000.34 1001.00 1001.50 1001.99 1002.45 1003.04 1003.62 1003.94 1004.41 1004.85 1005.16 1005.43 1005.79 1006.36
Wind_Speed
10 9 10 11 7 8 15 19 20 20 9 3 5 5 3 12 16 10 17 12 24 19 19 19 20 18 17 15 14 12 10 9 10 11 11 12 12 12 11 9 8 7 7 6 5 5 4 3 3
10 12 10 8 9 13 14 20 22 18 5 4 2 1 8 9 20 17 15 20 22 17 17 17 19 19 17 16 15 13 12 11 10 11 12 12 11 12 11 10 10 9 8 7 7 6 5 3 2
12 15 8 6 13 17 17 20 15 13 5 4 3 9 8 2 17 18 12 21 21 16 16 16 20 19 18 17 16 15 13 12 12 11 11 12 12 12 12 12 11 11 10 9 8 7 6 5 4
8 9 7 11 18 20 25 23 21 9 14 8 8 7 6 4 9 14 17 21 18 17 15 18 20 18 17 17 17 16 15 14 13 13 12 12 12 12 12 12 12 11 11 10 9 8 6 5 5
8 8 12 15 18 21 22 21 18 14 6 8 15 14 9 10 16 20 20 19 17 17 15 17 20 17 16 16 17 17 16 14 14 14 13 13 13 13 13 13 13 13 12 11 10 8 7 7 6
5 6 14 15 21 21 19 20 21 10 8 12 8 13 12 18 20 18 18 18 17 16 16 15 20 18 16 15 15 16 16 15 14 14 14 14 14 14 14 14 13 13 12 11 10 10 9 8 7
13 10 16 20 20 20 17 10 18 13 13 17 15 11 2 16 12 18 16 15 16 17 16 14 14 15 15 14 14 15 16 16 15 14 14 15 15 15 14 14 14 14 13 12 12 11 11 9 8
12 13 20 19 16 20 23 21 21 23 17 16 19 8 12 7 21 20 17 17 17 16 18 15 13 14 12 11 14 14 14 15 15 15 15 15 15 15 15 15 14 14 13 12 13 13 11 10 9
16 14 16 23 20 18 18 18 21 21 22 17 18 10 9 9 7 18 17 16 16 16 16 16 14 13 12 12 13 13 15 14 15 14 15 13 9 11 14 14 15 15 14 14 14 13 12 11 10
19 17 23 21 20 16 16 13 15 18 20 23 19 4 6 3 10 13 15 15 15 16 18 15 15 15 14 11 11 13 12 10 10 11 11 10 10 9 12 14 18 17 16 15 14 13 12 11 7
21 24 23 23 21 19 21 19 13 18 21 22 12 14 7 7 10 14 17 16 15 14 14 18 15 17 16 11 9 7 7 8 8 12 11 11 9 8 8 7 9 8 14 8 10 9 7 10 8
26 29 27 27 24 22 24 20 16 18 21 25 17 21 9 8 6 12 9 6 4 9 9 15 13 15 13 9 9 10 9 9 8 11 14 10 8 8 8 7 8 9 8 10 8 8 9 11 11
29 27 28 28 26 27 24 25 22 22 22 25 25 19 19 15 11 9 8 8 11 6 23 18 17 9 7 5 3 5 7 8 10 11 14 12 10 9 8 6 8 9 10 10 10 9 10 12 13
21 26 27 28 29 27 29 27 21 26 21 23 24 23 14 14 12 11 10 9 2 4 4 7 15 12 9 6 4 3 4 5 8 9 11 16 11 8 9 8 6 8 10 10 11 10 9 11 12
21 27 25 27 27 29 26 27 31 23 22 22 22 23 23 16 21 15 13 8 5 3 2 2 11 13 11 9 7 7 5 5 6 5 9 17 14 12 10 8 9 6 6 7 8 11 9 5 5
22 23 23 22 28 27 22 28 29 23 22 22 23 22 21 22 17 14 14 8 9 5 5 5 5 13 11 9 8 7 7 7 6 7 5 13 15 12 10 8 7 8 5 6 4 4 5 5 5
17 21 26 29 24 26 27 32 26 25 24 21 19 20 21 21 18 14 16 12 9 9 7 5 5 6 10 9 7 7 7 5 5 5 6 8 13 15 8 7 6 7 7 5 4 4 4 3 3
18 21 22 26 23 26 27 31 30 23 22 23 22 25 22 23 23 17 19 15 9 10 10 6 4 5 2 4 4 4 4 5 5 4 5 7 9 13 11 6 7 5 4 5 4 4 4 3 4
22 23 28 27 27 27 23 29 28 26 25 27 21 22 24 23 20 21 16 18 15 11 12 10 8 6 3 4 3 4 5 5 4 4 6 6 8 10 10 9 6 7 6 5 5 4 5 3 2
23 25 27 27 26 22 26 32 30 25 25 27 24 21 24 23 21 15 15 9 10 9 9 9 8 7 6 4 4 3 3 5 6 5 6 6 9 8 8 8 7 8 4 6 5 5 3 3 2
25 22 24 27 24 22 26 31 30 29 25 25 26 25 23 25 19 20 13 8 9 10 10 10 9 8 8 8 3 4 3 3 2 4 4 5 8 8 8 10 7 8 6 5 5 4 5 4 3
21 21 25 25 23 17 21 21 23 23 26 27 24 22 23 22 22 17 13 9 8 8 9 9 9 9 9 9 7 8 5 5 5 5 6 7 7 9 10 8 8 9 7 5 7 6 5 4 3
23 21 21 23 23 24 25 19 18 24 28 25 23 21 22 22 24 21 14 13 9 9 10 10 10 13 14 12 11 8 8 6 4 4 9 8 7 7 9 8 8 8 6 6 8 6 6 4 3
21 16 21 21 19 20 27 24 22 23 24 24 25 26 20 20 21 23 20 11 11 13 12 12 14 14 16 12 14 11 11 8 6 7 9 7 6 5 8 8 6 6 5 6 5 5 6 3 2
14 15 14 16 15 19 25 26 22 20 29 31 24 21 23 21 22 20 19 15 16 12 10 8 11 15 13 13 10 13 9 12 5 13 9 10 7 5 8 9 7 5 5 6 5 6 4 4 3
20 19 9 9 15 17 22 15 21 24 35 28 23 9 8 24 19 13 8 6 9 11 11 13 9 12 11 11 12 10 10 7 7 10 9 9 9 9 10 9 8 8 6 6 6 3 4 4 3
18 17 18 18 19 15 10 21 23 22 29 22 21 7 3 4 3 5 7 6 7 7 6 10 9 10 12 12 10 11 11 9 10 9 7 10 10 10 11 9 7 6 6 6 6 4 5 6 5
19 18 16 7 6 9 14 16 12 21 22 21 22 19 8 6 4 6 8 5 4 6 6 6 9 13 12 11 11 11 10 9 10 8 8 7 11 11 9 7 7 6 5 6 6 4 5 5 4
13 16 16 11 10 13 10 12 13 21 18 17 25 12 11 7 8 8 7 3 8 9 14 7 10 13 12 12 12 12 10 11 10 8 8 9 8 10 8 7 6 6 6 6 5 0 6 5 5
19 22 2 4 15 11 8 15 10 14 22 28 26 17 14 6 3 7 9 6 11 15 11 10 10 13 13 12 12 11 12 12 10 9 9 8 7 7 6 7 9 6 6 6 5 4 5 5 5
Wind_Direction
260 248 261 261 242 233 253 243 261 271 255 352 60 9 293 307 24 97 129 150 119 132 143 155 155 156 156 154 153 149 146 148 143 144 146 145 145 145 151 151 156 160 162 161 157 157 168 147 129
247 246 256 274 235 245 243 233 239 247 273 197 95 212 274 96 107 139 145 133 123 138 144 154 160 158 159 156 156 154 153 156 156 155 155 155 156 157 162 166 169 175 179 180 175 179 182 174 176
259 258 260 233 233 246 261 244 222 222 212 129 133 211 236 166 117 139 124 118 122 139 150 156 158 158 162 161 160 158 158 162 167 169 167 164 167 169 172 174 179 182 188 188 185 192 193 194 197
235 223 249 258 253 242 250 281 300 175 191 149 243 182 237 123 112 130 136 133 136 143 153 145 156 163 164 164 161 159 168 171 172 172 175 175 179 178 178 183 182 187 190 191 193 195 202 202 211
255 269 236 246 245 260 280 284 288 289 167 208 225 247 176 118 95 137 139 142 152 146 153 147 156 164 166 167 167 166 171 176 179 174 176 181 187 187 181 188 187 190 194 194 197 196 203 212 218
224 240 257 245 245 255 262 270 283 268 279 278 242 210 241 147 138 149 152 152 154 142 131 148 160 165 170 173 173 174 177 177 183 180 183 184 192 192 190 192 193 195 197 196 198 200 207 213 221
240 237 251 256 268 277 250 284 274 269 249 250 264 248 251 128 167 152 156 149 154 142 129 143 162 166 171 176 182 185 182 180 185 184 189 192 195 196 196 197 199 202 200 199 203 207 211 213 223
243 251 257 265 271 272 286 315 314 318 246 239 246 258 228 224 166 150 166 162 162 151 136 141 155 171 177 182 189 194 191 185 190 189 194 196 199 200 201 201 203 206 205 205 209 211 213 217 222
232 244 251 251 249 259 276 281 298 300 308 253 259 224 65 45 94 156 172 172 166 158 151 149 162 169 177 184 189 195 198 195 195 196 199 197 202 203 209 208 209 208 207 211 215 216 216 220 226
232 239 243 254 274 285 269 260 285 287 289 288 243 176 69 266 180 200 185 173 177 162 164 165 158 163 176 190 181 190 194 200 201 200 201 205 210 208 204 206 211 203 206 214 218 220 221 222 230
231 244 245 250 254 269 284 288 258 271 265 267 266 278 167 239 224 209 194 190 181 180 179 167 157 162 173 196 166 177 194 196 203 204 200 199 213 219 207 207 194 195 205 208 213 219 223 222 222
253 247 245 254 261 268 271 282 266 273 277 285 262 234 177 204 273 226 217 186 186 192 202 158 153 160 177 175 166 175 189 190 196 201 200 201 202 211 223 206 192 190 195 201 212 208 207 222 228
248 252 261 259 254 259 260 256 266 253 260 275 282 270 191 185 204 247 249 190 221 223 125 207 181 150 154 182 171 183 191 189 192 195 200 195 201 211 206 217 207 184 197 188 205 214 208 211 224
269 261 258 255 259 254 255 257 254 251 252 265 274 281 263 190 232 221 230 233 271 347 358 136 150 147 150 173 204 247 209 208 194 194 190 197 199 192 216 202 212 218 193 204 194 211 219 204 215
273 274 276 263 256 255 253 251 248 256 243 246 255 266 274 259 198 209 226 229 226 227 283 17 120 145 158 172 187 217 235 222 231 216 182 190 193 204 196 209 208 206 233 200 197 201 218 212 210
279 275 267 255 246 255 261 255 244 250 251 250 251 260 263 264 253 230 227 208 193 187 190 202 204 162 171 177 191 206 211 217 226 204 202 178 189 193 207 202 202 208 222 220 217 209 195 198 209
247 257 261 268 257 250 236 253 252 240 238 249 249 252 254 260 248 230 248 234 190 171 167 176 194 166 173 185 188 207 221 232 223 208 205 186 181 193 192 209 210 188 211 209 206 202 209 207 220
268 258 255 256 259 269 265 240 249 247 245 230 240 252 252 240 252 245 220 224 198 159 153 172 222 197 186 210 195 212 221 217 218 218 204 195 185 176 190 214 204 213 203 206 199 187 196 208 207
282 278 275 276 287 294 279 263 265 237 231 248 223 234 246 255 234 232 236 215 212 168 147 169 184 220 227 211 200 224 219 220 200 198 219 189 168 178 176 203 204 211 199 202 200 180 192 223 191
270 275 276 283 288 289 287 280 278 267 244 229 232 226 247 245 245 242 218 218 156 156 159 166 186 199 225 202 219 225 220 218 188 183 193 161 161 176 184 192 222 193 202 192 207 174 161 195 198
273 265 267 275 281 286 281 276 269 270 273 259 226 217 223 247 252 232 230 213 168 167 171 182 189 198 205 212 189 227 237 254 167 166 143 154 164 181 190 192 231 169 197 187 174 157 189 217 148
277 274 274 278 280 271 271 274 261 261 261 263 250 222 212 228 244 246 215 216 178 164 166 183 199 202 205 198 201 207 197 205 211 168 155 162 177 190 186 177 229 168 194 182 176 179 197 191 182
277 292 286 289 282 279 259 262 264 269 252 251 255 255 211 212 242 244 238 217 211 201 191 190 198 196 203 198 199 210 211 205 178 161 153 156 178 160 169 195 216 172 195 164 167 166 174 179 162
276 289 282 282 280 263 264 255 256 254 263 259 227 244 243 210 221 244 244 219 230 231 206 197 205 199 200 190 198 202 205 208 179 168 146 152 144 164 179 199 177 174 196 149 152 151 149 163 176
267 261 272 264 258 260 257 247 257 255 257 265 267 240 230 226 223 224 224 231 226 223 223 208 194 197 189 184 194 204 215 196 209 146 157 153 146 173 177 184 184 178 201 150 123 114 165 188 196
301 299 275 273 294 305 319 310 252 238 254 267 299 258 269 209 211 211 218 232 239 228 217 212 212 176 172 188 196 190 209 180 164 153 158 150 169 174 179 183 185 181 167 143 116 152 188 177 199
291 286 256 251 273 279 259 281 278 272 265 250 247 240 71 37 109 180 221 232 247 245 228 186 180 170 183 185 176 190 196 178 150 160 163 161 175 171 168 170 167 155 150 131 149 196 202 166 157
275 283 272 255 275 254 277 248 252 272 269 230 250 261 164 133 204 212 226 240 300 294 274 180 170 176 165 167 173 186 168 158 143 148 147 125 126 145 156 159 153 154 139 140 172 164 180 141 135
270 285 247 246 245 277 288 265 9 304 289 270 227 221 142 173 209 231 202 184 244 262 252 164 178 155 155 161 169 159 170 122 123 132 120 109 120 134 156 158 130 128 153 168 146 163 139 150 160
4 300 56 210 268 290 251 279 269 335 333 288 216 169 143 139 330 263 105 228 233 226 193 167 161 150 154 156 159 155 127 123 132 126 118 118 123 139 160 146 135 162 173 148 158 204 152 155 160